Waarnemingen

Advertentie
Mijn weer
Maastricht, Nederland (6380): temperatuur & dauwpunt: 22.02.2017 06:00:00 - 28.02.2017 06:00:00 (CET)Maastricht, Nederland (6380): temperatuur 5cm: 22.02.2017 06:00:00 - 28.02.2017 06:00:00 (CET)Maastricht, Nederland (6380): windsnelheid & windstoten: 22.02.2017 06:00:00 - 28.02.2017 06:00:00 (CET)Maastricht, Nederland (6380): windrichting: 22.02.2017 06:00:00 - 28.02.2017 06:00:00 (CET)Maastricht, Nederland (6380): luchtdruk: 22.02.2017 06:00:00 - 28.02.2017 06:00:00 (CET)Maastricht, Nederland (6380): zicht: 22.02.2017 06:00:00 - 28.02.2017 06:00:00 (CET)Maastricht, Nederland (6380): neerslag: 22.02.2017 06:00:00 - 28.02.2017 06:00:00 (CET)
Datum & Tijd tt [°C] td [°C] tt 5cm [°C] ff [km/u] ff [kn] fx [km/u] fx [kn] dd ppp [hPa] vv [km] rr [mm]
28.02.2017 06:00:00 4,7 -0,1 4,2 37 20 54 29 ZZW 991,2 10 0,0
28.02.2017 05:00:00 4,9 -0,7 3,9 37 20 50 27 ZW 990,8 10 0,0
28.02.2017 04:00:00 5,1 0,8 4,5 31 17 43 23 ZW 990,5 10 0,0
28.02.2017 03:00:00 5,3 0,5 4,8 28 15 47 25 ZW 990,5 10 0,0
28.02.2017 02:00:00 5,1 1,4 4,6 34 18 54 29 ZW 990,9 10 0,0
28.02.2017 01:00:00 5,4 2,1 4,2 26 14 58 31 ZZW 990,5 10 0,0
28.02.2017 00:00:00 6,6 1,7 6,0 26 14 54 29 ZW 991,1 10 0,0
27.02.2017 23:00:00 7,4 2,9 6,7 31 17 47 25 ZW 991,0 10 0,0
27.02.2017 22:00:00 7,7 3,1 7,0 35 19 50 27 ZZW 991,0 10 0,0
27.02.2017 21:00:00 7,9 3,1 7,1 37 20 50 27 ZW 990,9 10 0,0
27.02.2017 20:00:00 8,1 4,0 7,1 35 19 54 29 ZZW 991,2 10 0,0
27.02.2017 19:00:00 7,5 5,1 6,9 29 16 47 25 ZZW 991,6 10 0,3
27.02.2017 18:00:00 7,6 5,2 6,7 35 19 50 27 Z 992,8 10 6,3
27.02.2017 17:00:00 8,2 5,8 8,2 35 19 54 29 ZW 994,1 10 1,6
27.02.2017 16:00:00 11,7 5,2 10,6 39 21 65 35 Z 993,1 10 0,0
27.02.2017 15:00:00 12,7 4,7 12,0 42 23 58 31 ZZW 994,0 10 0,0
27.02.2017 14:00:00 12,2 4,7 11,3 39 21 54 29 ZZW 996,0 10 0,0
27.02.2017 13:00:00 11,6 4,4 11,1 35 19 54 29 ZZW 997,5 10 0,0
27.02.2017 12:00:00 11,2 4,5 10,7 39 21 58 31 ZZW 999,4 10 0,0
27.02.2017 11:00:00 11,3 4,7 10,8 42 23 50 27 ZZW 1000,7 10 0,0
27.02.2017 10:00:00 10,8 4,6 10,3 39 21 61 33 ZZW 1001,7 10 0,0
27.02.2017 09:00:00 10,3 5,3 9,6 31 17 47 25 ZZW 1002,8 10 0,0
27.02.2017 08:00:00 10,2 5,2 9,2 22 12 40 21 ZZW 1003,7 10 0,0
27.02.2017 07:00:00 10,1 5,3 9,4 34 18 43 23 ZW 1004,4 10 0,0
27.02.2017 06:00:00 10,3 5,8 9,6 26 14 40 21 ZZW 1004,9 10 0,0
27.02.2017 05:00:00 10,5 5,6 9,5 24 13 36 19 ZZW 1005,6 10 0,0
27.02.2017 04:00:00 10,4 5,8 9,6 22 12 36 19 ZZW 1006,5 47 0,0
27.02.2017 03:00:00 10,4 6,1 9,7 22 12 36 19 ZZW 1007,3 10 0,0
27.02.2017 02:00:00 10,1 6,5 9,4 28 15 40 21 ZZW 1008,1 10 0,0
27.02.2017 01:00:00 10,1 6,5 9,5 31 17 40 21 ZZW 1008,5 10 0,0
27.02.2017 00:00:00 10,0 6,3 9,3 28 15 47 25 ZZW 1008,8 10 0,0
26.02.2017 23:00:00 10,1 6,0 9,3 34 18 43 23 ZZW 1009,5 10 0,0
26.02.2017 22:00:00 9,8 6,0 9,1 34 18 43 23 ZZW 1009,9 10 0,0
26.02.2017 21:00:00 9,6 6,0 8,8 31 17 40 21 ZZW 1010,3 10 0,0
26.02.2017 20:00:00 9,3 6,1 8,7 31 17 40 21 ZZW 1010,6 10 0,0
26.02.2017 19:00:00 9,3 6,0 8,8 31 17 43 23 ZZW 1011,1 10 0,0
26.02.2017 18:00:00 9,7 6,0 9,2 34 18 47 25 ZZW 1011,0 10 0,0
26.02.2017 17:00:00 10,3 6,4 10,0 31 17 43 23 ZZW 1010,8 10 0,0
26.02.2017 16:00:00 10,9 6,2 10,6 35 19 47 25 ZW 1011,2 10 0,0
26.02.2017 15:00:00 11,8 5,9 11,9 34 18 40 21 ZW 1011,3 10 0,0
26.02.2017 14:00:00 10,6 5,4 10,6 26 14 40 21 ZW 1011,8 10 0,0
26.02.2017 13:00:00 9,9 5,1 9,9 28 15 40 21 ZW 1012,2 10 0,0
26.02.2017 12:00:00 9,5 4,4 9,5 28 15 36 19 ZZW 1012,8 10 0,0
26.02.2017 11:00:00 8,4 3,2 8,1 28 15 40 21 ZZW 1012,9 10 0,0
26.02.2017 10:00:00 7,6 2,4 7,2 31 17 47 25 ZZW 1012,5 10 0,0
26.02.2017 09:00:00 7,1 1,9 6,6 29 16 36 19 ZW 1013,2 10 0,0
26.02.2017 08:00:00 6,7 1,6 5,5 26 14 32 18 ZZW 1012,6 10 0,0
26.02.2017 07:00:00 6,6 1,4 5,6 26 14 29 16 ZZW 1012,0 10 0,0
26.02.2017 06:00:00 6,7 1,7 5,9 28 15 32 18 ZZW 1012,4 10 0,0
26.02.2017 05:00:00 7,0 1,1 6,1 29 16 36 19 ZZW 1012,7 10 0,0
26.02.2017 04:00:00 6,8 1,4 6,0 26 14 29 16 ZZW 1013,2 10 0,0
26.02.2017 03:00:00 6,7 1,1 5,9 26 14 29 16 ZZW 1013,7 10 0,0
26.02.2017 02:00:00 6,9 0,8 5,9 29 16 36 19 ZZW 1014,0 10 0,0
26.02.2017 01:00:00 6,7 0,9 5,7 29 16 36 19 ZZW 1014,5 10 0,0
26.02.2017 00:00:00 6,3 1,0 5,4 28 15 32 18 ZZW 1015,1 10 0,0
25.02.2017 23:00:00 6,0 1,1 5,2 28 15 40 21 ZZW 1015,6 10 0,0
25.02.2017 22:00:00 6,3 1,1 5,6 31 17 40 21 ZZW 1016,2 10 0,0
25.02.2017 21:00:00 6,5 0,9 5,6 29 16 40 21 ZZW 1016,5 10 0,0
25.02.2017 20:00:00 6,7 1,0 5,6 28 15 36 19 ZZW 1016,6 10 0,0
25.02.2017 19:00:00 6,7 1,2 5,8 28 15 36 19 ZZW 1016,6 10 0,0
25.02.2017 18:00:00 6,9 1,0 6,1 28 15 36 19 ZZW 1016,6 10 0,0
25.02.2017 17:00:00 7,4 0,6 6,7 35 19 43 23 ZZW 1017,2 10 0,0
25.02.2017 16:00:00 7,2 0,2 6,8 31 17 43 23 ZZW 1017,7 10 0,0
25.02.2017 15:00:00 7,4 0,5 7,2 34 18 47 25 ZW 1018,3 10 0,0
25.02.2017 14:00:00 7,2 1,0 7,5 35 19 47 25 ZZW 1018,9 10 0,0
25.02.2017 13:00:00 7,3 1,4 8,1 31 17 43 23 ZZW 1019,8 10 0,0
25.02.2017 12:00:00 6,7 1,5 6,5 34 18 47 25 ZW 1020,6 10 0,0
25.02.2017 11:00:00 5,8 2,3 6,0 28 15 36 19 ZZW 1020,9 10 0,0
25.02.2017 10:00:00 4,2 1,1 3,8 24 13 29 16 ZZW 1021,5 10 0,0
25.02.2017 09:00:00 2,0 0,2 1,3 21 11 25 14 ZZW 1021,4 10 0,0
25.02.2017 08:00:00 0,9 -0,3 0,1 16 9 22 12 Z 1021,6 8 0,0
25.02.2017 07:00:00 0,4 -0,2 -0,3 15 8 18 10 ZZW 1021,4 3,6 0,0
25.02.2017 06:00:00 0,8 0,1 0,2 18 10 22 12 ZZW 1021,1 4,3 0,0
25.02.2017 05:00:00 0,7 0,2 -0,2 15 8 18 10 ZZW 1020,9 2,8 0,0
25.02.2017 04:00:00 0,4 0,1 -0,2 13 7 14 8 ZZW 1021,3 2,5 0,0
25.02.2017 03:00:00 0,5 0,0 -0,4 9 5 14 8 ZZW 1021,5 2,4 0,0
25.02.2017 02:00:00 1,2 1,0 0,5 15 8 14 8 ZZW 1021,8 2,9 0,0
25.02.2017 01:00:00 1,8 1,1 -0,1 9 5 14 8 Z 1021,6 4,5 0,0
25.02.2017 00:00:00 0,6 0,1 -0,7 9 5 11 6 ZZW 1021,5 6 0,0
24.02.2017 23:00:00 1,9 1,1 0,8 5 3 11 6 ZW 1021,2 10 0,0
24.02.2017 22:00:00 1,1 0,2 0,1 9 5 11 6 ZW 1020,8 10 0,0
24.02.2017 21:00:00 2,1 1,3 1,1 5 3 11 6 W 1020,4 10 0,0
24.02.2017 20:00:00 2,3 1,4 1,4 9 5 14 8 ZW 1020,0 10 0,0
24.02.2017 19:00:00 2,4 1,6 1,3 11 6 14 8 ZZW 1019,0 10 0,0
24.02.2017 18:00:00 4,0 2,0 3,6 8 4 14 8 WZW 1018,1 10 0,0
24.02.2017 17:00:00 5,1 2,6 5,3 9 5 18 10 WZW 1017,0 10 0,0
24.02.2017 16:00:00 4,1 1,8 3,6 15 8 32 18 W 1016,4 10 2,0
24.02.2017 15:00:00 6,7 2,5 7,8 13 7 22 12 WZW 1015,5 10 0,0
24.02.2017 14:00:00 4,7 1,8 5,2 9 5 25 14 WZW 1015,3 10 0,0
24.02.2017 13:00:00 6,1 1,6 6,7 9 5 22 12 WNW 1014,9 10 0,0
24.02.2017 12:00:00 5,4 2,8 6,3 13 7 25 14 W 1014,8 10 0,0
24.02.2017 11:00:00 4,3 2,9 4,9 9 5 18 10 W 1014,2 10 0,0
24.02.2017 10:00:00 2,9 1,3 2,9 13 7 32 18 W 1013,4 10 0,2
24.02.2017 09:00:00 3,3 2,1 3,3 5 3 11 6 WNW 1012,6 6 0,6
24.02.2017 08:00:00 3,4 1,7 3,1 11 6 22 12 WZW 1011,5 10 0,0
24.02.2017 07:00:00 3,2 1,7 2,9 13 7 25 14 WZW 1010,4 10 0,0
24.02.2017 06:00:00 2,8 1,4 1,8 11 6 25 14 W 1009,0 10 0,0
24.02.2017 05:00:00 2,9 1,8 2,2 11 6 32 18 W 1008,0 10 0,5
24.02.2017 04:00:00 3,5 2,3 3,2 16 9 32 18 W 1006,9 10 0,5
24.02.2017 03:00:00 3,5 2,1 3,4 16 9 43 23 WNW 1006,0 10 0,4
24.02.2017 02:00:00 4,5 1,5 4,1 22 12 50 27 W 1004,4 10 0,0
24.02.2017 01:00:00 4,8 2,0 4,4 31 17 65 35 W 1002,7 10 0,0
24.02.2017 00:00:00 5,2 2,5 4,5 29 16 68 37 W 1000,1 10 1,2
23.02.2017 23:00:00 6,3 1,7 5,4 31 17 76 41 WZW 997,4 10 1,5
23.02.2017 22:00:00 6,2 2,8 5,6 22 12 76 41 W 996,6 10 1,0
23.02.2017 21:00:00 7,9 1,9 7,1 44 24 72 39 WZW 995,1 10 0,0
23.02.2017 20:00:00 8,3 1,8 7,6 48 26 72 39 WZW 994,7 10 0,0
23.02.2017 19:00:00 8,7 2,1 7,8 48 26 76 41 ZW 994,2 10 0,0
23.02.2017 18:00:00 8,5 3,3 7,5 44 24 79 43 WZW 993,7 10 0,2
23.02.2017 17:00:00 9,8 2,6 8,9 44 24 86 47 WZW 992,8 10 0,0
23.02.2017 16:00:00 10,1 4,3 9,3 50 27 76 41 ZW 992,7 10 0,0
23.02.2017 15:00:00 9,3 6,1 8,1 61 33 76 41 ZW 993,0 10 3,0
23.02.2017 14:00:00 8,9 6,1 8,5 48 26 76 41 ZZW 993,8 10 0,1
23.02.2017 13:00:00 8,5 6,4 8,2 44 24 61 33 ZZW 995,8 10 0,0
23.02.2017 12:00:00 8,1 6,8 7,9 42 23 58 31 ZW 998,0 4,1 0,1
23.02.2017 11:00:00 8,0 6,7 7,9 39 21 61 33 ZW 999,0 3,8 0,0
23.02.2017 10:00:00 8,4 6,4 8,1 41 22 58 31 ZW 1000,1 10 0,0
23.02.2017 09:00:00 8,6 6,4 8,2 37 20 50 27 ZW 1001,6 10 0,0
23.02.2017 08:00:00 8,3 6,9 8,1 41 22 50 27 ZW 1002,3 10 0,0
23.02.2017 07:00:00 8,6 6,8 8,2 35 19 50 27 ZW 1003,1 6 0,0
23.02.2017 06:00:00 8,4 7,3 8,2 37 20 58 31 ZW 1004,0 6 0,0
23.02.2017 05:00:00 8,9 7,5 8,6 41 22 58 31 ZW 1004,8 10 0,0
23.02.2017 04:00:00 9,4 7,7 9,1 35 19 50 27 ZW 1005,4 10 0,0
23.02.2017 03:00:00 9,3 8,3 9,1 31 17 47 25 ZW 1006,1 6 0,2
23.02.2017 02:00:00 9,3 8,6 9,1 29 16 43 23 ZW 1006,6 5 1,4
23.02.2017 01:00:00 9,4 8,6 9,1 29 16 47 25 ZW 1006,9 10 1,8
23.02.2017 00:00:00 9,5 8,6 9,3 34 18 50 27 ZW 1007,3 10 1,0
22.02.2017 23:00:00 9,6 8,6 9,3 31 17 47 25 ZW 1007,5 10 1,0
22.02.2017 22:00:00 9,7 8,6 9,4 37 20 47 25 ZW 1007,6 10 1,4
22.02.2017 21:00:00 9,7 8,6 9,4 31 17 47 25 ZW 1007,6 10 1,4
22.02.2017 20:00:00 9,7 8,7 9,4 28 15 47 25 WZW 1007,7 10 1,7
22.02.2017 19:00:00 9,8 8,6 9,5 29 16 47 25 WZW 1007,7 10 1,8
22.02.2017 18:00:00 9,7 8,7 9,4 28 15 50 27 WZW 1007,8 7 2,7
22.02.2017 17:00:00 9,9 8,7 9,6 28 15 58 31 WZW 1007,8 10 1,5
22.02.2017 16:00:00 9,9 8,8 9,7 26 14 50 27 WZW 1007,8 6 0,5
22.02.2017 15:00:00 10,2 8,4 9,8 31 17 58 31 WZW 1007,9 10 0,0
22.02.2017 14:00:00 10,0 8,3 9,7 37 20 54 29 WZW 1008,4 10 0,0
22.02.2017 13:00:00 9,7 8,4 9,4 31 17 47 25 ZW 1009,3 5 0,1
22.02.2017 12:00:00 9,4 8,4 9,2 34 18 47 25 ZW 1009,8 5 0,1
22.02.2017 11:00:00 9,4 8,2 9,2 31 17 50 27 ZW 1010,0 10 0,1
22.02.2017 10:00:00 9,1 8,4 9,0 28 15 43 23 ZW 1010,0 3,5 0,5
22.02.2017 09:00:00 9,2 8,1 8,9 29 16 43 23 WZW 1010,2 4,2 0,3
22.02.2017 08:00:00 9,3 7,8 8,9 29 16 47 25 WZW 1009,8 10 0,6
22.02.2017 07:00:00 9,5 7,7 9,0 37 20 50 27 ZW 1009,3 10 0,0
22.02.2017 06:00:00 9,1 7,9 8,8 35 19 50 27 ZW 1009,8 3,9 0,1

tt = temperatuur
td = dauwpunt
tt 5cm = temperatuur 5cm
ff = windsnelheid
fx = windstoten
dd = windrichting
ppp = luchtdruk
vv = zicht
rr = neerslag

Weerstations in de omgeving